www.pogodaiklimat.ru

Погода и климат >> Архив погоды >> Узбекистан >> Тахиаташ


ПОГОДА в Тахиаташе

  • Прогноз погоды в Тахиаташе
  • Монитор погоды в Тахиаташе

АРХИВ ПОГОДЫ в Тахиаташе

Время (UTC), дата Ветер
(напр.,м/с)
 
Видим.   Явления Облачность Т
(С)
Тd
(С)
f
(%)
Тe
(С)
Тes
(С)
Комфортность P
(гПа)
Po
(гПа)
Тmin
(С)
Tmax
(С)
R
(мм)
R24
(мм)
S
(см)
21 10.06 штиль 0 1000 м ясно +18.5 +14.9 80 +19 +19 1020.3 1011.1
00 11.06 штиль 0 4000 м ясно +17.2 +14.8 86 +17 +17 1020.5 1011.3
03 11.06 штиль 0 10 км ясно +23.9 +14.7 56 +27 +32 жарко 1020.6 1011.6
06 11.06 СВ 1 10 км ясно +29.6 +13.3 37 +31 +50 жарко 1019.8 1011.1 +16.7
09 11.06 СВ 2 10 км ясно +31.4 +11.9 30 +32 +51 опасность
солнечного
удара
1018.3 1009.6
12 11.06 С 2 10 км ясно +32.4 +8.8 23 +31 +40 жарко 1017.0 1008.3
15 11.06 СЗ 1 10 км 3/0
[Ci fib]
+30.7 +11.5 31 +31 +31 жарко 1016.9 1008.2 +32.9
18 11.06 штиль 0 1000 м 3/0
[Ci fib]
+23.6 +16.2 63 +27 +27 жарко 1016.9 1007.9 +32.9
21 11.06 штиль 0 1000 м ясно +20.7 +16.4 76 +24 +24 комфорт 1016.3 1007.3
00 12.06 штиль 0 4000 м ясно +18.9 +14.8 77 +20 +20 1015.8 1006.6
03 12.06 штиль 0 10 км ясно +25.0 +18.1 66 +29 +35 душно 1016.2 1007.3
06 12.06 СЗ 2 10 км ясно +31.2 +16.9 42 +35 +51 опасность
солнечного
удара
1015.1 1006.4 +18.3
09 12.06 СЗ 2 10 км 1/1 600 м
[Cu hum]
+33.5 +15.7 34 +36 +53 опасность
солнечного
удара
1013.5 1004.8
12 12.06 СЗ 2 10 км ясно +34.6 +16.2 33 +37 +45 очень
душно
1012.3 1003.7
15 12.06 штиль 0 10 км ясно +32.8 +15.9 36 +35 +36 душно 1011.3 1002.7 +35.1
18 12.06 штиль 0 1000 м ясно +24.4 +16.8 63 +28 +28 душно 1011.7 1002.9 +35.1
21 12.06 С 1 1000 м ясно +21.2 +16.4 74 +25 +25 комфорт 1010.8 1001.9
00 13.06 С 1 4000 м ясно +21.6 +17.2 76 +26 +26 душно 1010.3 1001.3
03 13.06 штиль 0 10 км ясно +26.6 +20.0 67 +33 +38 очень
душно
1010.9 1002.1
06 13.06 З 1 10 км 3/0
[Ci fib]
+33.9 +18.3 40 +38 +56 опасность
солнечного
удара
1010.7 1002.1 +20.8
09 13.06 штиль 0 10 км 4/3 1000 м
[Cu hum Ci fib]
+36.0 +15.6 30 +38 +55 опасность
солнечного
удара
1009.3 1000.8
12 13.06 З 1 10 км 4/1 1000 м
[Cu hum Ci sp]
+36.3 +15.4 29 +38 +46 очень
душно
1007.9 999.4
15 13.06 штиль 0 10 км 9/0
[Ci]
+33.3 +15.4 34 +35 +36 душно 1007.2 998.6 +36.8
18 13.06 штиль 0 1000 м 3/0
[Ci sp]
+25.2 +15.5 55 +28 +28 жарко 1007.0 998.2 +36.8
21 13.06 штиль 0 1000 м 3/0
[Ac trans]
+23.0 +18.6 76 +29 +29 очень
душно
1006.0 997.1
00 14.06 штиль 0 4000 м 8/0
[Ac trans Cc]
+21.1 +17.5 80 +25 +25 комфорт 1005.3 997.0
03 14.06 З 1 10 км 4/0
[Ci sp]
+26.3 +18.8 63 +31 +36 душно 1006.4 997.6
06 14.06 ЮЗ 1 10 км 4/0
[Ac trans Ci fib]
+34.1 +19.3 42 +39 +55 опасность
солнечного
удара
1006.2 997.7 +20.0
09 14.06 ЮЗ 1 10 км 5/5 1000 м
[Cu med, cong]
+37.9 +16.9 29 +40 +51 опасность
солнечного
удара
1005.0 996.7
12 14.06 З 1 10 км 9/6 300 м
[Cb cap Ac trans]
+36.5 +15.1 28 +38 +40 очень
душно
1004.6 996.1
15 14.06 СЗ 1 10 км 9/4 600 м
[Cb cap Ac trans]
+31.1 +14.6 37 +33 +33 душно 1006.5 997.9 +38.8
18 14.06 СЗ 1 1000 м 9/0
[Ac und]
+27.6 +14.5 45 +30 +30 жарко 1006.8 998.2 +38.8
21 14.06 СЗ 2 1000 м 3/0
[Ci fib]
+23.8 +13.3 52 +26 +26 жарко 1007.8 998.9
00 15.06 СЗ 1 4000 м 3/0
[Ci fib]
+18.4 +11.1 62 +20 +20 1009.1 1000.0
03 15.06 СЗ 1 10 км ясно +21.2 +15.5 70 +24 +29 комфорт 1010.3 1001.4
06 15.06 З 1 10 км ясно +28.4 +18.4 55 +33 +52 опасность
солнечного
удара
1010.5 1001.9 +17.4
09 15.06 З 2 10 км ясно +30.6 +15.2 39 +33 +52 опасность
солнечного
удара
1010.0 1001.4
12 15.06 З 3 10 км ясно +31.8 +14.5 35 +34 +40 душно 1009.4 1000.8
15 15.06 СЗ 1 10 км ясно +29.8 +11.5 32 +30 +30 жарко 1009.2 1000.6 +33.7
18 15.06 штиль 0 1000 м ясно +22.7 +10.7 47 +25 +25 комфорт 1010.8 1001.9 +33.7
21 15.06 СВ 1 1000 м ясно +20.5 +11.7 57 +24 +24 комфорт 1011.2 1002.3
00 16.06 СВ 1 4000 м ясно +18.8 +8.9 53 +20 +20 1012.0 1002.9
03 16.06 СВ 2 10 км ясно +22.9 +12.2 51 +26 +30 жарко 1013.3 1004.3
06 16.06 ЮВ 2 10 км ясно +28.0 +14.2 43 +30 +46 жарко 1013.1 1004.4 +18.5
09 16.06 ЮВ 2 10 км ясно +30.7 +14.7 38 +33 +52 опасность
солнечного
удара
1012.3 1003.6
12 16.06 ЮВ 1 10 км ясно +31.0 +14.0 36 +33 +42 душно 1011.3 1002.7
15 16.06 штиль 0 10 км ясно +30.0 +14.1 38 +32 +32 жарко 1010.7 1002.1 +31.6
18 16.06 штиль 0 1000 м ясно +24.0 +12.3 48 +26 +26 жарко 1010.7 1001.8 +31.6

 

Местоположение метеостанции Тахиаташ (Каракалпакстан, Узбекистан): широта 42.40 долгота 59.60 высота над уровнем моря 77 м.

В архиве по умолчанию представлена погода в Тахиаташе за последнюю неделю. Архивные данные за месяц целиком и за предыдущие месяцы, начиная с января 2011 года, Вы можете получить, выбрав интересующий диапазон дат из раскрывающегося списка и нажав кнопку "Ввод!".


*Определитесь, кто Вы:
робот инопланетянин человек

Внимание! Время в таблицах - всемирное. Для получения местного времени необходимо прибавить поправку, которая равна 5 ч.

Смотрите также архив погоды в соседних городах и на ближайших метеорологических станциях:

Погода в Нукусе (Каракалпакстан, Узбекистан) (6 км)
Погода в Тахтакупыре (Каракалпакстан, Узбекистан) (9 км)
Погода в Кенеургенче (Дашогузский велаят, Туркменистан) (40 км)
Погода в Чимбае (Каракалпакстан, Узбекистан) (64 км)
Погода в Дашогузе (Дашогузский велаят, Туркменистан) (75 км)
Погода в Гурлене (Хорезмская область, Узбекистан) (89 км)
Погода в Кунграде (Каракалпакстан, Узбекистан) (93 км)
Погода в Шах-Сенеме (Дашогузский велаят, Туркменистан) (117 км)
Погода в Ургенче (Хорезмская область, Узбекистан) (122 км)
Погода в Хиве (Хорезмская область, Узбекистан) (129 км)

Пояснения к столбцам:

Ветер - указаны скорость ветра в м/с - средняя за 10 мин, порывы в срок и между сроками (в фигурных скобках) и направление, откуда дует ветер: С - северный, СВ - северо-восточный, В - восточный, ЮВ - юго-восточный, Ю - южный, ЮЗ - юго-западный, З - западный, СЗ - северо-западный.
Видимость - горизонтальная дальность видимости в метрах или километрах. При видимости от 1 до 10 км при отсутствии осадков обычно наблюдается дымка, при ухудшении видимости до 1 км и менее - туман. В сухую погоду видимость может ухудшаться дымом, пылью или мглою.
Явления - указаны атмосферные явления, наблюдавшиеся в срок или в последний час перед сроком; фигурными скобками обозначены явления, наблюдавшиеся между сроками (за 1-3 часа до срока); квадратными скобками обозначены град или гололедные отложения с указанием их диаметра в мм.
Облачность - указаны через наклонную черту общая и нижняя облачность в баллах и высота нижней границы облаков в метрах; квадратными скобками обозначены формы облаков: Ci - перистые, Cs - перисто-слоистые, Cc - перисто-кучевые, Ac - высококучевые, As - высокослоистые, Sc - слоисто-кучевые, Ns - слоисто-дождевые, Cu - кучевые, Cb - кучево-дождевые. Подробнее классификацию облаков см. в Атласе облаков (PDF).
T - Температура воздуха - температура, измеренная на высоте 2 м над землей.
Td - Температура точки росы - температура, при понижении до которой содержащийся в воздухе водяной пар достигнет насыщения.
f - Относительная влажность воздуха - влажноcть воздуха, измеренная на высоте 2 м над землей.
Te - Эффективная температура - температура, которую ощущает одетый по сезону человек в тени. Характеристика душности погоды. При расчете учитывается влияние влажности воздуха и скорости ветра на теплоощущения человека.
Tes - Эффективная температура на солнце - температура, которую ощущает человек, с поправкой на солнечный нагрев. Характеристика знойности погоды. Зависит от высоты солнца над горизонтом, облачности и скорости ветра. Ночью, в пасмурную погоду, а также при ветре 12 м/с и более поправка равна нулю.
P - Атмосферное давление - приведенное к уровню моря атмосферное давление.
Po - Атмосферное давление - измеренное на уровне метеостанции атмосферное давление.
Tmin - Минимальная температура - минимум температуры воздуха на высоте 2 м над землей.
Tmax - Максимальная температура - максимум температуры воздуха на высоте 2 м над землей.
R - Количество осадков - Количество выпавших осадков за период времени, мм. При наведении курсора мыши на число - период времени, за который выпало указанное количество осадков.
R24 - Количество осадков - Количество выпавших осадков за 24 часа, мм.
S - Снежный покров - Высота снежного покрова, см. При наведении курсора мыши на число - состояние снежного покрова и степень покрытия местности в баллах.